Year,Month,Day,Hour,Minute,Value (Times are PST for temperature in C)
2013,05,22,00,00,6.20
2013,05,22,00,01,6.20
2013,05,22,00,02,6.20
2013,05,22,00,03,6.20
2013,05,22,00,04,6.20
2013,05,22,00,05,6.20
2013,05,22,00,06,6.10
2013,05,22,00,07,6.10
2013,05,22,00,08,6.10
2013,05,22,00,09,6.10
2013,05,22,00,10,6.10
2013,05,22,00,11,6.00
2013,05,22,00,12,6.00
2013,05,22,00,13,6.00
2013,05,22,00,14,6.00
2013,05,22,00,15,6.00
2013,05,22,00,16,6.00
2013,05,22,00,17,6.00
2013,05,22,00,18,6.00
2013,05,22,00,19,6.00
2013,05,22,00,20,6.10
2013,05,22,00,21,6.10
2013,05,22,00,22,6.10
2013,05,22,00,23,6.10
2013,05,22,00,24,6.10
2013,05,22,00,25,6.10
2013,05,22,00,26,6.10
2013,05,22,00,27,6.10
2013,05,22,00,28,6.10
2013,05,22,00,29,6.10
2013,05,22,00,30,6.20
2013,05,22,00,31,6.20
2013,05,22,00,32,6.20
2013,05,22,00,33,6.20
2013,05,22,00,34,6.20
2013,05,22,00,35,6.20
2013,05,22,00,36,6.20
2013,05,22,00,37,6.10
2013,05,22,00,38,6.10
2013,05,22,00,39,6.10
2013,05,22,00,40,6.10
2013,05,22,00,41,6.10
2013,05,22,00,42,6.00
2013,05,22,00,43,6.00
2013,05,22,00,44,6.00
2013,05,22,00,45,5.90
2013,05,22,00,46,5.90
2013,05,22,00,47,5.90
2013,05,22,00,48,6.00
2013,05,22,00,49,6.00
2013,05,22,00,50,6.00
2013,05,22,00,51,6.00
2013,05,22,00,52,6.00
2013,05,22,00,53,6.00
2013,05,22,00,54,6.00
2013,05,22,00,55,6.00
2013,05,22,00,56,6.00
2013,05,22,00,57,6.10
2013,05,22,00,58,6.10
2013,05,22,00,59,6.10
2013,05,22,01,00,6.10
2013,05,22,01,01,6.10
2013,05,22,01,02,6.20
2013,05,22,01,03,6.20
2013,05,22,01,04,6.20
2013,05,22,01,05,6.20
2013,05,22,01,06,6.20
2013,05,22,01,07,6.20
2013,05,22,01,08,6.20
2013,05,22,01,09,6.30
2013,05,22,01,10,6.30
2013,05,22,01,11,6.30
2013,05,22,01,12,6.30
2013,05,22,01,13,6.40
2013,05,22,01,14,6.40
2013,05,22,01,15,6.40
2013,05,22,01,16,6.40
2013,05,22,01,17,6.40
2013,05,22,01,18,6.40
2013,05,22,01,19,6.50
2013,05,22,01,20,6.50
2013,05,22,01,21,6.50
2013,05,22,01,22,6.60
2013,05,22,01,23,6.60
2013,05,22,01,24,6.60
2013,05,22,01,25,6.60
2013,05,22,01,26,6.60
2013,05,22,01,27,6.60
2013,05,22,01,28,6.60
2013,05,22,01,29,6.60
2013,05,22,01,30,6.60
2013,05,22,01,31,6.70
2013,05,22,01,32,6.70
2013,05,22,01,33,6.70
2013,05,22,01,34,6.70
2013,05,22,01,35,6.70
2013,05,22,01,36,6.70
2013,05,22,01,37,6.70
2013,05,22,01,38,6.70
2013,05,22,01,39,6.70
2013,05,22,01,40,6.70
2013,05,22,01,41,6.70
2013,05,22,01,42,6.70
2013,05,22,01,43,6.80
2013,05,22,01,44,6.80
2013,05,22,01,45,6.80
2013,05,22,01,46,6.80
2013,05,22,01,47,6.80
2013,05,22,01,48,6.80
2013,05,22,01,49,6.90
2013,05,22,01,50,6.90
2013,05,22,01,51,6.90
2013,05,22,01,52,6.90
2013,05,22,01,53,6.90
2013,05,22,01,54,6.90
2013,05,22,01,55,6.90
2013,05,22,01,56,6.90
2013,05,22,01,57,6.90
2013,05,22,01,58,6.90
2013,05,22,01,59,6.90
2013,05,22,02,00,6.90
2013,05,22,02,01,6.90
2013,05,22,02,02,6.90
2013,05,22,02,03,6.90
2013,05,22,02,04,6.90
2013,05,22,02,05,7.00
2013,05,22,02,06,7.00
2013,05,22,02,07,7.00
2013,05,22,02,08,7.00
2013,05,22,02,09,7.00
2013,05,22,02,10,7.00
2013,05,22,02,11,7.00
2013,05,22,02,12,7.00
2013,05,22,02,13,7.00
2013,05,22,02,14,7.00
2013,05,22,02,15,7.00
2013,05,22,02,16,7.10
2013,05,22,02,17,7.00
2013,05,22,02,18,7.00
2013,05,22,02,19,7.00
2013,05,22,02,20,7.00
2013,05,22,02,21,7.00
2013,05,22,02,22,7.00
2013,05,22,02,23,7.00
2013,05,22,02,24,7.00
2013,05,22,02,25,7.00
2013,05,22,02,26,7.00
2013,05,22,02,27,7.00
2013,05,22,02,28,7.00
2013,05,22,02,29,7.00
2013,05,22,02,30,7.00
2013,05,22,02,31,7.00
2013,05,22,02,32,7.00
2013,05,22,02,33,7.10
2013,05,22,02,34,7.10
2013,05,22,02,35,7.10
2013,05,22,02,36,7.10
2013,05,22,02,37,7.10
2013,05,22,02,38,7.10
2013,05,22,02,39,7.10
2013,05,22,02,40,7.10
2013,05,22,02,41,7.10
2013,05,22,02,42,7.10
2013,05,22,02,43,7.10
2013,05,22,02,44,7.10
2013,05,22,02,45,7.10
2013,05,22,02,46,7.10
2013,05,22,02,47,7.10
2013,05,22,02,48,7.10
2013,05,22,02,49,7.10
2013,05,22,02,50,7.10
2013,05,22,02,51,7.10
2013,05,22,02,52,7.10
2013,05,22,02,53,7.10
2013,05,22,02,54,7.10
2013,05,22,02,55,7.10
2013,05,22,02,56,7.10
2013,05,22,02,57,7.10
2013,05,22,02,58,7.10
2013,05,22,02,59,7.10
2013,05,22,03,00,7.10
2013,05,22,03,01,7.10
2013,05,22,03,02,7.10
2013,05,22,03,03,7.10
2013,05,22,03,04,7.10
2013,05,22,03,05,7.10
2013,05,22,03,06,7.10
2013,05,22,03,07,7.20
2013,05,22,03,08,7.20
2013,05,22,03,09,7.20
2013,05,22,03,10,7.20
2013,05,22,03,11,7.20
2013,05,22,03,12,7.20
2013,05,22,03,13,7.20
2013,05,22,03,14,7.20
2013,05,22,03,15,7.20
2013,05,22,03,16,7.20
2013,05,22,03,17,7.20
2013,05,22,03,18,7.20
2013,05,22,03,19,7.20
2013,05,22,03,20,7.20
2013,05,22,03,21,7.20
2013,05,22,03,22,7.20
2013,05,22,03,23,7.10
2013,05,22,03,24,7.10
2013,05,22,03,25,7.10
2013,05,22,03,26,7.10
2013,05,22,03,27,7.00
2013,05,22,03,28,7.00
2013,05,22,03,29,7.00
2013,05,22,03,30,7.00
2013,05,22,03,31,7.00
2013,05,22,03,32,7.00
2013,05,22,03,33,7.00
2013,05,22,03,34,7.00
2013,05,22,03,35,7.00
2013,05,22,03,36,7.00
2013,05,22,03,37,7.00
2013,05,22,03,38,7.00
2013,05,22,03,39,7.00
2013,05,22,03,40,7.00
2013,05,22,03,41,7.10
2013,05,22,03,42,7.10
2013,05,22,03,43,7.10
2013,05,22,03,44,7.10
2013,05,22,03,45,7.10
2013,05,22,03,46,7.10
2013,05,22,03,47,7.10
2013,05,22,03,48,7.10
2013,05,22,03,49,7.10
2013,05,22,03,50,7.10
2013,05,22,03,51,7.10
2013,05,22,03,52,7.20
2013,05,22,03,53,7.20
2013,05,22,03,54,7.20
2013,05,22,03,55,7.20
2013,05,22,03,56,7.20
2013,05,22,03,57,7.20
2013,05,22,03,58,7.20
2013,05,22,03,59,7.20
2013,05,22,04,00,7.30
2013,05,22,04,01,7.30
2013,05,22,04,02,7.30
2013,05,22,04,03,7.30
2013,05,22,04,04,7.30
2013,05,22,04,05,7.30
2013,05,22,04,06,7.30
2013,05,22,04,07,7.20
2013,05,22,04,08,7.20
2013,05,22,04,09,7.20
2013,05,22,04,10,7.20
2013,05,22,04,11,7.20
2013,05,22,04,12,7.20
2013,05,22,04,13,7.20
2013,05,22,04,14,7.20
2013,05,22,04,15,7.20
2013,05,22,04,16,7.20
2013,05,22,04,17,7.20
2013,05,22,04,18,7.20
2013,05,22,04,19,7.20
2013,05,22,04,20,7.20
2013,05,22,04,21,7.20
2013,05,22,04,22,7.20
2013,05,22,04,23,7.20
2013,05,22,04,24,7.20
2013,05,22,04,25,7.20
2013,05,22,04,26,7.20
2013,05,22,04,27,7.20
2013,05,22,04,28,7.20
2013,05,22,04,29,7.20
2013,05,22,04,30,7.30
2013,05,22,04,31,7.30
2013,05,22,04,32,7.30
2013,05,22,04,33,7.30
2013,05,22,04,34,7.30
2013,05,22,04,35,7.30
2013,05,22,04,36,7.30
2013,05,22,04,37,7.30
2013,05,22,04,38,7.30
2013,05,22,04,39,7.20
2013,05,22,04,40,7.20
2013,05,22,04,41,7.20
2013,05,22,04,42,7.20
2013,05,22,04,43,7.20
2013,05,22,04,44,7.20
2013,05,22,04,45,7.20
2013,05,22,04,46,7.20
2013,05,22,04,47,7.20
2013,05,22,04,48,7.20
2013,05,22,04,49,7.20
2013,05,22,04,50,7.10
2013,05,22,04,51,7.10
2013,05,22,04,52,7.10
2013,05,22,04,53,7.10
2013,05,22,04,54,7.10
2013,05,22,04,55,7.10
2013,05,22,04,56,7.10
2013,05,22,04,57,7.10
2013,05,22,04,58,7.00
2013,05,22,04,59,7.00
2013,05,22,05,00,7.00
2013,05,22,05,01,7.00
2013,05,22,05,02,7.00
2013,05,22,05,03,7.00
2013,05,22,05,04,7.00
2013,05,22,05,05,6.90
2013,05,22,05,06,6.90
2013,05,22,05,07,6.90
2013,05,22,05,08,6.90
2013,05,22,05,09,6.90
2013,05,22,05,10,6.80
2013,05,22,05,11,6.80
2013,05,22,05,12,6.80
2013,05,22,05,13,6.80
2013,05,22,05,14,6.80
2013,05,22,05,15,6.70
2013,05,22,05,16,6.70
2013,05,22,05,17,6.70
2013,05,22,05,18,6.60
2013,05,22,05,19,6.60
2013,05,22,05,20,6.60
2013,05,22,05,21,6.50
2013,05,22,05,22,6.50
2013,05,22,05,23,6.50
2013,05,22,05,24,6.40
2013,05,22,05,25,6.40
2013,05,22,05,26,6.40
2013,05,22,05,27,6.40
2013,05,22,05,28,6.30
2013,05,22,05,29,6.30
2013,05,22,05,30,6.30
2013,05,22,05,31,6.30
2013,05,22,05,32,6.30
2013,05,22,05,33,6.30
2013,05,22,05,34,6.30
2013,05,22,05,35,6.30
2013,05,22,05,36,6.30
2013,05,22,05,37,6.20
2013,05,22,05,38,6.20
2013,05,22,05,39,6.20
2013,05,22,05,40,6.20
2013,05,22,05,41,6.20
2013,05,22,05,42,6.20
2013,05,22,05,43,6.20
2013,05,22,05,44,6.10
2013,05,22,05,45,6.10
2013,05,22,05,46,6.10
2013,05,22,05,47,6.10
2013,05,22,05,48,6.10
2013,05,22,05,49,6.10
2013,05,22,05,50,6.10
2013,05,22,05,51,6.10
2013,05,22,05,52,6.20
2013,05,22,05,53,6.20
2013,05,22,05,54,6.20
2013,05,22,05,55,6.20
2013,05,22,05,56,6.30
2013,05,22,05,57,6.30
2013,05,22,05,58,6.30
2013,05,22,05,59,6.30
2013,05,22,06,00,6.40
2013,05,22,06,01,6.40
2013,05,22,06,02,6.40
2013,05,22,06,03,6.50
2013,05,22,06,04,6.50
2013,05,22,06,05,6.50
2013,05,22,06,06,6.60
2013,05,22,06,07,6.60
2013,05,22,06,08,6.70
2013,05,22,06,09,6.70
2013,05,22,06,10,6.70
2013,05,22,06,11,6.70
2013,05,22,06,12,6.80
2013,05,22,06,13,6.80
2013,05,22,06,14,6.90
2013,05,22,06,15,6.90
2013,05,22,06,16,7.00
2013,05,22,06,17,7.00
2013,05,22,06,18,7.00
2013,05,22,06,19,7.10
2013,05,22,06,20,7.10
2013,05,22,06,21,7.10
2013,05,22,06,22,7.20
2013,05,22,06,23,7.20
2013,05,22,06,24,7.20
2013,05,22,06,25,7.20
2013,05,22,06,26,7.20
2013,05,22,06,27,7.20
2013,05,22,06,28,7.30
2013,05,22,06,29,7.30
2013,05,22,06,30,7.30
2013,05,22,06,31,7.40
2013,05,22,06,32,7.40
2013,05,22,06,33,7.40
2013,05,22,06,34,7.50
2013,05,22,06,35,7.50
2013,05,22,06,36,7.50
2013,05,22,06,37,7.60
2013,05,22,06,38,7.60
2013,05,22,06,39,7.60
2013,05,22,06,40,7.70
2013,05,22,06,41,7.70
2013,05,22,06,42,7.70
2013,05,22,06,43,7.80
2013,05,22,06,44,7.80
2013,05,22,06,45,7.80
2013,05,22,06,46,7.90
2013,05,22,06,47,7.90
2013,05,22,06,48,8.00
2013,05,22,06,49,8.10
2013,05,22,06,50,8.10
2013,05,22,06,51,8.20
2013,05,22,06,52,8.20
2013,05,22,06,53,8.30
2013,05,22,06,54,8.30
2013,05,22,06,55,8.40
2013,05,22,06,56,8.40
2013,05,22,06,57,8.40
2013,05,22,06,58,8.50
2013,05,22,06,59,8.50
2013,05,22,07,00,8.60
2013,05,22,07,01,8.60
2013,05,22,07,02,8.60
2013,05,22,07,03,8.70
2013,05,22,07,04,8.70
2013,05,22,07,05,8.80
2013,05,22,07,06,8.80
2013,05,22,07,07,8.90
2013,05,22,07,08,8.90
2013,05,22,07,09,9.00
2013,05,22,07,10,9.00
2013,05,22,07,11,9.00
2013,05,22,07,12,9.10
2013,05,22,07,13,9.10
2013,05,22,07,14,9.10
2013,05,22,07,15,9.10
2013,05,22,07,16,9.10
2013,05,22,07,17,9.10
2013,05,22,07,18,9.10
2013,05,22,07,19,9.20
2013,05,22,07,20,9.20
2013,05,22,07,21,9.20
2013,05,22,07,22,9.30
2013,05,22,07,23,9.30
2013,05,22,07,24,9.30
2013,05,22,07,25,9.40
2013,05,22,07,26,9.40
2013,05,22,07,27,9.50
2013,05,22,07,28,9.50
2013,05,22,07,29,9.60
2013,05,22,07,30,9.60
2013,05,22,07,31,9.60
2013,05,22,07,32,9.60
2013,05,22,07,33,9.60
2013,05,22,07,34,9.60
2013,05,22,07,35,9.60
2013,05,22,07,36,9.60
2013,05,22,07,37,9.60
2013,05,22,07,38,9.60
2013,05,22,07,39,9.60
2013,05,22,07,40,9.60
2013,05,22,07,41,9.60
2013,05,22,07,42,9.60
2013,05,22,07,43,9.60
2013,05,22,07,44,9.60
2013,05,22,07,45,9.60
2013,05,22,07,46,9.60
2013,05,22,07,47,9.70
2013,05,22,07,48,9.70
2013,05,22,07,49,9.70
2013,05,22,07,50,9.70
2013,05,22,07,51,9.70
2013,05,22,07,52,9.80
2013,05,22,07,53,9.80
2013,05,22,07,54,9.90
2013,05,22,07,55,9.90
2013,05,22,07,56,10.00
2013,05,22,07,57,10.10
2013,05,22,07,58,10.20
2013,05,22,07,59,10.30
2013,05,22,08,00,10.40
2013,05,22,08,01,10.50
2013,05,22,08,02,10.60
2013,05,22,08,03,10.70
2013,05,22,08,04,10.80
2013,05,22,08,05,10.90
2013,05,22,08,06,11.00
2013,05,22,08,07,11.10
2013,05,22,08,08,11.10
2013,05,22,08,09,11.10
2013,05,22,08,10,11.10
2013,05,22,08,11,11.10
2013,05,22,08,12,11.10
2013,05,22,08,13,11.10
2013,05,22,08,14,11.20
2013,05,22,08,15,11.20
2013,05,22,08,16,11.20
2013,05,22,08,17,11.10
2013,05,22,08,18,11.00
2013,05,22,08,19,10.90
2013,05,22,08,20,10.80
2013,05,22,08,21,10.70
2013,05,22,08,22,10.50
2013,05,22,08,23,10.40
2013,05,22,08,24,10.30
2013,05,22,08,25,10.20
2013,05,22,08,26,10.20
2013,05,22,08,27,10.10
2013,05,22,08,28,10.10
2013,05,22,08,29,10.00
2013,05,22,08,30,10.00
2013,05,22,08,31,10.00
2013,05,22,08,32,9.90
2013,05,22,08,33,9.90
2013,05,22,08,34,9.90
2013,05,22,08,35,9.90
2013,05,22,08,36,9.90
2013,05,22,08,37,9.90
2013,05,22,08,38,9.90
2013,05,22,08,39,9.90
2013,05,22,08,40,9.90
2013,05,22,08,41,9.90
2013,05,22,08,42,10.00
2013,05,22,08,43,10.00
2013,05,22,08,44,10.10
2013,05,22,08,45,10.20
2013,05,22,08,46,10.30
2013,05,22,08,47,10.50
2013,05,22,08,48,10.70
2013,05,22,08,49,10.80
2013,05,22,08,50,11.00
2013,05,22,08,51,11.10
2013,05,22,08,52,11.20
2013,05,22,08,53,11.20
2013,05,22,08,54,11.20
2013,05,22,08,55,11.30
2013,05,22,08,56,11.30
2013,05,22,08,57,11.40
2013,05,22,08,58,11.40
2013,05,22,08,59,11.50
2013,05,22,09,00,11.60
2013,05,22,09,01,11.60
2013,05,22,09,02,11.70
2013,05,22,09,03,11.80
2013,05,22,09,04,11.90
2013,05,22,09,05,11.90
2013,05,22,09,06,12.00
2013,05,22,09,07,12.00
2013,05,22,09,08,11.90
2013,05,22,09,09,11.90
2013,05,22,09,10,11.80
2013,05,22,09,11,11.80
2013,05,22,09,12,11.80
2013,05,22,09,13,11.80
2013,05,22,09,14,11.80
2013,05,22,09,15,11.90
2013,05,22,09,16,12.00
2013,05,22,09,17,12.10
2013,05,22,09,18,12.20
2013,05,22,09,19,12.40
2013,05,22,09,20,12.50
2013,05,22,09,21,12.60
2013,05,22,09,22,12.70
2013,05,22,09,23,12.80
2013,05,22,09,24,12.70
2013,05,22,09,25,12.70
2013,05,22,09,26,12.70
2013,05,22,09,27,12.80
2013,05,22,09,28,12.70
2013,05,22,09,29,12.70
2013,05,22,09,30,12.80
2013,05,22,09,31,12.90
2013,05,22,09,32,12.90
2013,05,22,09,33,12.90
2013,05,22,09,34,13.00
2013,05,22,09,35,13.00
2013,05,22,09,36,13.00
2013,05,22,09,37,13.00
2013,05,22,09,38,13.00
2013,05,22,09,39,12.90
2013,05,22,09,40,12.90
2013,05,22,09,41,12.90
2013,05,22,09,42,12.90
2013,05,22,09,43,12.90
2013,05,22,09,44,12.90
2013,05,22,09,45,13.00
2013,05,22,09,46,13.00
2013,05,22,09,47,13.00
2013,05,22,09,48,12.90
2013,05,22,09,49,12.90
2013,05,22,09,50,12.90
2013,05,22,09,51,12.90
2013,05,22,09,52,12.90
2013,05,22,09,53,13.00
2013,05,22,09,54,13.10
2013,05,22,09,55,13.20
2013,05,22,09,56,13.30
2013,05,22,09,57,13.30
2013,05,22,09,58,13.40
2013,05,22,09,59,13.40
2013,05,22,10,00,13.40
2013,05,22,10,01,13.40
2013,05,22,10,02,13.30
2013,05,22,10,03,13.10
2013,05,22,10,04,13.00
2013,05,22,10,05,12.80
2013,05,22,10,06,12.70
2013,05,22,10,07,12.60
2013,05,22,10,08,12.60
2013,05,22,10,09,12.60
2013,05,22,10,10,12.60
2013,05,22,10,11,12.50
2013,05,22,10,12,12.40
2013,05,22,10,13,12.30
2013,05,22,10,14,12.30
2013,05,22,10,15,12.30
2013,05,22,10,16,12.30
2013,05,22,10,17,12.40
2013,05,22,10,18,12.50
2013,05,22,10,19,12.60
2013,05,22,10,20,12.80
2013,05,22,10,21,12.80
2013,05,22,10,22,12.90
2013,05,22,10,23,12.80
2013,05,22,10,24,12.70
2013,05,22,10,25,12.70
2013,05,22,10,26,12.60
2013,05,22,10,27,12.50
2013,05,22,10,28,12.40
2013,05,22,10,29,12.30
2013,05,22,10,30,12.20
2013,05,22,10,31,12.10
2013,05,22,10,32,12.10
2013,05,22,10,33,12.00
2013,05,22,10,34,12.00
2013,05,22,10,35,11.90
2013,05,22,10,36,11.90
2013,05,22,10,37,11.90
2013,05,22,10,38,11.80
2013,05,22,10,39,11.70
2013,05,22,10,40,11.60
2013,05,22,10,41,11.60
2013,05,22,10,42,11.60
2013,05,22,10,43,11.60
2013,05,22,10,44,11.60
2013,05,22,10,45,11.60
2013,05,22,10,46,11.60
2013,05,22,10,47,11.60
2013,05,22,10,48,11.70
2013,05,22,10,49,11.70
2013,05,22,10,50,11.70
2013,05,22,10,51,11.70
2013,05,22,10,52,11.70
2013,05,22,10,53,11.70
2013,05,22,10,54,11.80
2013,05,22,10,55,11.90
2013,05,22,10,56,11.90
2013,05,22,10,57,11.90
2013,05,22,10,58,11.90
2013,05,22,10,59,11.90
2013,05,22,11,00,11.90
2013,05,22,11,01,11.90
2013,05,22,11,02,11.90
2013,05,22,11,03,11.90
2013,05,22,11,04,11.90
2013,05,22,11,05,11.90
2013,05,22,11,06,11.90
2013,05,22,11,07,11.90
2013,05,22,11,08,11.90
2013,05,22,11,09,12.00
2013,05,22,11,10,12.00
2013,05,22,11,11,12.10
2013,05,22,11,12,12.20
2013,05,22,11,13,12.30
2013,05,22,11,14,12.40
2013,05,22,11,15,12.60
2013,05,22,11,16,12.70
2013,05,22,11,17,12.80
2013,05,22,11,18,12.90
2013,05,22,11,19,12.90
2013,05,22,11,20,13.00
2013,05,22,11,21,13.00
2013,05,22,11,22,13.10
2013,05,22,11,23,13.10
2013,05,22,11,24,13.20
2013,05,22,11,25,13.30
2013,05,22,11,26,13.40
2013,05,22,11,27,13.50
2013,05,22,11,28,13.60
2013,05,22,11,29,13.70
2013,05,22,11,30,13.80
2013,05,22,11,31,13.80
2013,05,22,11,32,13.80
2013,05,22,11,33,13.70
2013,05,22,11,34,13.70
2013,05,22,11,35,13.70
2013,05,22,11,36,13.70
2013,05,22,11,37,13.70
2013,05,22,11,38,13.80
2013,05,22,11,39,13.80
2013,05,22,11,40,13.70
2013,05,22,11,41,13.70
2013,05,22,11,42,13.70
2013,05,22,11,43,13.70
2013,05,22,11,44,13.70
2013,05,22,11,45,13.60
2013,05,22,11,46,13.50
2013,05,22,11,47,13.40
2013,05,22,11,48,13.40
2013,05,22,11,49,13.30
2013,05,22,11,50,13.40
2013,05,22,11,51,13.30
2013,05,22,11,52,13.30
2013,05,22,11,53,13.20
2013,05,22,11,54,13.10
2013,05,22,11,55,13.10
2013,05,22,11,56,13.10
2013,05,22,11,57,13.10
2013,05,22,11,58,13.20
2013,05,22,11,59,13.20
2013,05,22,12,00,13.20
2013,05,22,12,01,13.30
2013,05,22,12,02,13.40
2013,05,22,12,03,13.50
2013,05,22,12,04,13.50
2013,05,22,12,05,13.60
2013,05,22,12,06,13.60
2013,05,22,12,07,13.70
2013,05,22,12,08,13.70
2013,05,22,12,09,13.80
2013,05,22,12,10,13.80
2013,05,22,12,11,13.80
2013,05,22,12,12,13.80
2013,05,22,12,13,13.90
2013,05,22,12,14,13.90
2013,05,22,12,15,13.90
2013,05,22,12,16,14.00
2013,05,22,12,17,14.10
2013,05,22,12,18,14.10
2013,05,22,12,19,14.20
2013,05,22,12,20,14.20
2013,05,22,12,21,14.30
2013,05,22,12,22,14.30
2013,05,22,12,23,14.40
2013,05,22,12,24,14.50
2013,05,22,12,25,14.60
2013,05,22,12,26,14.70
2013,05,22,12,27,14.80
2013,05,22,12,28,14.80
2013,05,22,12,29,14.80
2013,05,22,12,30,14.60
2013,05,22,12,31,14.40
2013,05,22,12,32,14.30
2013,05,22,12,33,14.10
2013,05,22,12,34,14.10
2013,05,22,12,35,14.20
2013,05,22,12,36,14.30
2013,05,22,12,37,14.40
2013,05,22,12,38,14.50
2013,05,22,12,39,14.50
2013,05,22,12,40,14.50
2013,05,22,12,41,14.50
2013,05,22,12,42,14.50
2013,05,22,12,43,14.30
2013,05,22,12,44,14.20
2013,05,22,12,45,14.10
2013,05,22,12,46,14.10
2013,05,22,12,47,14.00
2013,05,22,12,48,13.90
2013,05,22,12,49,13.80
2013,05,22,12,50,13.70
2013,05,22,12,51,13.60
2013,05,22,12,52,13.50
2013,05,22,12,53,13.40
2013,05,22,12,54,13.40
2013,05,22,12,55,13.40
2013,05,22,12,56,13.40
2013,05,22,12,57,13.40
2013,05,22,12,58,13.30
2013,05,22,12,59,13.30
2013,05,22,13,00,13.30
2013,05,22,13,01,13.30
2013,05,22,13,02,13.30
2013,05,22,13,03,13.30
2013,05,22,13,04,13.30
2013,05,22,13,05,13.30
2013,05,22,13,06,13.30
2013,05,22,13,07,13.30
2013,05,22,13,08,13.30
2013,05,22,13,09,13.30
2013,05,22,13,10,13.30
2013,05,22,13,11,13.30
2013,05,22,13,12,13.30
2013,05,22,13,13,13.30
2013,05,22,13,14,13.30
2013,05,22,13,15,13.40
2013,05,22,13,16,13.40
2013,05,22,13,17,13.40
2013,05,22,13,18,13.40
2013,05,22,13,19,13.30
2013,05,22,13,20,13.30
2013,05,22,13,21,13.30
2013,05,22,13,22,13.30
2013,05,22,13,23,13.30
2013,05,22,13,24,13.30
2013,05,22,13,25,13.30
2013,05,22,13,26,13.30
2013,05,22,13,27,13.30
2013,05,22,13,28,13.30
2013,05,22,13,29,13.30
2013,05,22,13,30,13.30
2013,05,22,13,31,13.30
2013,05,22,13,32,13.30
2013,05,22,13,33,13.40
2013,05,22,13,34,13.40
2013,05,22,13,35,13.40
2013,05,22,13,36,13.50
2013,05,22,13,37,13.50
2013,05,22,13,38,13.60
2013,05,22,13,39,13.60
2013,05,22,13,40,13.70
2013,05,22,13,41,13.70
2013,05,22,13,42,13.70
2013,05,22,13,43,13.70
2013,05,22,13,44,13.70
2013,05,22,13,45,13.70
2013,05,22,13,46,13.60
2013,05,22,13,47,13.60
2013,05,22,13,48,13.60
2013,05,22,13,49,13.60
2013,05,22,13,50,13.60
2013,05,22,13,51,13.60
2013,05,22,13,52,13.60
2013,05,22,13,53,13.60
2013,05,22,13,54,13.60
2013,05,22,13,55,13.60
2013,05,22,13,56,13.50
2013,05,22,13,57,13.50
2013,05,22,13,58,13.50
2013,05,22,13,59,13.50
2013,05,22,14,00,13.60
2013,05,22,14,01,13.60
2013,05,22,14,02,13.70
2013,05,22,14,03,13.70
2013,05,22,14,04,13.80
2013,05,22,14,05,13.90
2013,05,22,14,06,14.00
2013,05,22,14,07,14.10
2013,05,22,14,08,14.20
2013,05,22,14,09,14.30
2013,05,22,14,10,14.30
2013,05,22,14,11,14.40
2013,05,22,14,12,14.50
2013,05,22,14,13,14.50
2013,05,22,14,14,14.50
2013,05,22,14,15,14.50
2013,05,22,14,16,14.60
2013,05,22,14,17,14.70
2013,05,22,14,18,14.80
2013,05,22,14,19,15.00
2013,05,22,14,20,15.00
2013,05,22,14,21,15.00
2013,05,22,14,22,15.00
2013,05,22,14,23,15.00
2013,05,22,14,24,15.00
2013,05,22,14,25,15.10
2013,05,22,14,26,15.00
2013,05,22,14,27,15.00
2013,05,22,14,28,15.00
2013,05,22,14,29,15.10
2013,05,22,14,30,15.20
2013,05,22,14,31,15.30
2013,05,22,14,32,15.40
2013,05,22,14,33,15.50
2013,05,22,14,34,15.60
2013,05,22,14,35,15.70
2013,05,22,14,36,15.70
2013,05,22,14,37,15.70
2013,05,22,14,38,15.70
2013,05,22,14,39,15.50
2013,05,22,14,40,15.40
2013,05,22,14,41,15.30
2013,05,22,14,42,15.20
2013,05,22,14,43,15.20
2013,05,22,14,44,15.20
2013,05,22,14,45,15.20
2013,05,22,14,46,15.00
2013,05,22,14,47,15.00
2013,05,22,14,48,15.00
2013,05,22,14,49,15.00
2013,05,22,14,50,15.00
2013,05,22,14,51,15.00
2013,05,22,14,52,15.00
2013,05,22,14,53,15.00
2013,05,22,14,54,15.00
2013,05,22,14,55,15.00
2013,05,22,14,56,15.00
2013,05,22,14,57,15.00
2013,05,22,14,58,15.00
2013,05,22,14,59,15.00
2013,05,22,15,00,15.10
2013,05,22,15,01,15.10
2013,05,22,15,02,15.10
2013,05,22,15,03,15.20
2013,05,22,15,04,15.20
2013,05,22,15,05,15.10
2013,05,22,15,06,15.10
2013,05,22,15,07,15.10
2013,05,22,15,08,15.00
2013,05,22,15,09,15.00
2013,05,22,15,10,15.00
2013,05,22,15,11,15.00
2013,05,22,15,12,15.00
2013,05,22,15,13,15.00
2013,05,22,15,14,15.10
2013,05,22,15,15,15.20
2013,05,22,15,16,15.10
2013,05,22,15,17,15.00
2013,05,22,15,18,15.00
2013,05,22,15,19,15.00
2013,05,22,15,20,14.90
2013,05,22,15,21,15.00
2013,05,22,15,22,15.00
2013,05,22,15,23,15.00
2013,05,22,15,24,14.90
2013,05,22,15,25,14.80
2013,05,22,15,26,14.80
2013,05,22,15,27,14.80
2013,05,22,15,28,14.80
2013,05,22,15,29,14.90
2013,05,22,15,30,15.00
2013,05,22,15,31,15.00
2013,05,22,15,32,15.00
2013,05,22,15,33,15.00
2013,05,22,15,34,15.00
2013,05,22,15,35,14.90
2013,05,22,15,36,14.90
2013,05,22,15,37,14.90
2013,05,22,15,38,14.80
2013,05,22,15,39,14.70
2013,05,22,15,40,14.80
2013,05,22,15,41,14.70
2013,05,22,15,42,14.70
2013,05,22,15,43,14.70
2013,05,22,15,44,14.70
2013,05,22,15,45,14.70
2013,05,22,15,46,14.70
2013,05,22,15,47,14.70
2013,05,22,15,48,14.70
2013,05,22,15,49,14.70
2013,05,22,15,50,14.70
2013,05,22,15,51,14.60
2013,05,22,15,52,14.60
2013,05,22,15,53,14.60
2013,05,22,15,54,14.60
2013,05,22,15,55,14.60
2013,05,22,15,56,14.60
2013,05,22,15,57,14.60
2013,05,22,15,58,14.50
2013,05,22,15,59,14.40
2013,05,22,16,00,14.30
2013,05,22,16,01,14.20
2013,05,22,16,02,14.20
2013,05,22,16,03,14.20
2013,05,22,16,04,14.20
2013,05,22,16,05,14.20
2013,05,22,16,06,14.20
2013,05,22,16,07,14.30
2013,05,22,16,08,14.30
2013,05,22,16,09,14.30
2013,05,22,16,10,14.30
2013,05,22,16,11,14.20
2013,05,22,16,12,14.20
2013,05,22,16,13,14.20
2013,05,22,16,14,14.20
2013,05,22,16,15,14.20
2013,05,22,16,16,14.10
2013,05,22,16,17,14.10
2013,05,22,16,18,14.10
2013,05,22,16,19,14.10
2013,05,22,16,20,14.10
2013,05,22,16,21,14.20
2013,05,22,16,22,14.20
2013,05,22,16,23,14.20
2013,05,22,16,24,14.30
2013,05,22,16,25,14.20
2013,05,22,16,26,14.20
2013,05,22,16,27,14.30
2013,05,22,16,28,14.30
2013,05,22,16,29,14.30
2013,05,22,16,30,14.30
2013,05,22,16,31,14.30
2013,05,22,16,32,14.40
2013,05,22,16,33,14.50
2013,05,22,16,34,14.60
2013,05,22,16,35,14.60
2013,05,22,16,36,14.50
2013,05,22,16,37,14.50
2013,05,22,16,38,14.50
2013,05,22,16,39,14.50
2013,05,22,16,40,14.50
2013,05,22,16,41,14.50
2013,05,22,16,42,14.60
2013,05,22,16,43,14.60
2013,05,22,16,44,14.60
2013,05,22,16,45,14.70
2013,05,22,16,46,14.60
2013,05,22,16,47,14.70
2013,05,22,16,48,14.70
2013,05,22,16,49,14.70
2013,05,22,16,50,14.70
2013,05,22,16,51,14.70
2013,05,22,16,52,14.70
2013,05,22,16,53,14.70
2013,05,22,16,54,14.70
2013,05,22,16,55,14.60
2013,05,22,16,56,14.60
2013,05,22,16,57,14.50
2013,05,22,16,58,14.50
2013,05,22,16,59,14.50
2013,05,22,17,00,14.50
2013,05,22,17,01,14.50
2013,05,22,17,02,14.60
2013,05,22,17,03,14.60
2013,05,22,17,04,14.60
2013,05,22,17,05,14.70
2013,05,22,17,06,14.70
2013,05,22,17,07,14.70
2013,05,22,17,08,14.60
2013,05,22,17,09,14.60
2013,05,22,17,10,14.60
2013,05,22,17,11,14.60
2013,05,22,17,12,14.60
2013,05,22,17,13,14.60
2013,05,22,17,14,14.50
2013,05,22,17,15,14.40
2013,05,22,17,16,14.40
2013,05,22,17,17,14.40
2013,05,22,17,18,14.40
2013,05,22,17,19,14.40
2013,05,22,17,20,14.40
2013,05,22,17,21,14.30
2013,05,22,17,22,14.30
2013,05,22,17,23,14.30
2013,05,22,17,24,14.30
2013,05,22,17,25,14.30
2013,05,22,17,26,14.30
2013,05,22,17,27,14.30
2013,05,22,17,28,14.30
2013,05,22,17,29,14.40
2013,05,22,17,30,14.40
2013,05,22,17,31,14.40
2013,05,22,17,32,14.40
2013,05,22,17,33,14.40
2013,05,22,17,34,14.30
2013,05,22,17,35,14.30
2013,05,22,17,36,14.30
2013,05,22,17,37,14.30
2013,05,22,17,38,14.20
2013,05,22,17,39,14.20
2013,05,22,17,40,14.20